Flag for Spain Weather past 2 weeks in Santander, Spain

Now
50 °F

Sunny.


Feels Like: 50 °F
Forecast: 46 / 57 °F
Wind: 1 mph from Northeast

Location: Santander / Parayas

Current Time: Dec 22, 2014 at 2:54:21 PM

Latest Report: Dec 22, 2014 at 2:00 PM


Visibility: 10 mi

Pressure: 30.42 "Hg

Humidity: 82%

Dew point: 45 °F

Location of SantanderLocation

Historic Weather in Santander — Graph

°F

Santander temperature yesterday

Maximum temperature yesterday: 55 °F (at 12:00 PM)
Minimum temperature yesterday: 43 °F (at 10:00 PM)
Average temperature yesterday: 51 °F

Past Weeks' High & Low Weather Summary

 TemperatureHumidityPressure
High57 °F (Dec 10, 12:30 PM)100% (Dec 7, 1:30 PM)30.60 "Hg (Dec 7, 1:30 PM)
Low36 °F (Dec 22, 7:00 AM)47% (Dec 12, 4:30 PM)29.71 "Hg (Dec 13, 5:30 AM)
Average52 °F80%30.32 "Hg
* Reported Dec 7 1:00 PM — Dec 22 1:30 PM, Santander, Weather by CustomWeather, © 2014

Note: Actual official high and low records may vary slightly from our data, if they occured in-between our weather recording intervals... More about our weather records

Advertising

Santander weather history for previous 24 hours

 ConditionsComfort  
Time TempWeatherWind HumidityBarometerVisibility
1:30 PM
Dec 22
50 °FSunny.No wind76%30.42 "Hg10 mi
1:00 PM48 °FSunny.1 mph94%30.42 "Hg10 mi
12:30 PM48 °FSunny.No wind94%30.45 "Hg10 mi
12:00 PM46 °FSunny.No wind93%30.45 "Hg10 mi
11:30 AM45 °FPassing clouds.No wind100%30.45 "HgN/A
11:00 AM43 °FPassing clouds.No wind100%30.45 "HgN/A
10:30 AM41 °FPassing clouds.1 mph100%30.45 "HgN/A
10:00 AM39 °FSleet. Cloudy.No wind100%30.45 "HgN/A
9:30 AM37 °FLight fog.No wind100%30.45 "Hg0 mi
9:00 AM37 °FPassing clouds.No wind100%30.45 "Hg4 mi
8:30 AM39 °FLight fog.2 mph93%30.45 "Hg0 mi
8:00 AM39 °FChilly.1 mph93%30.45 "Hg3 mi
7:30 AM37 °FFog.No wind100%30.45 "Hg1 mi
7:00 AM36 °FLight fog.No wind100%30.45 "Hg1 mi
6:30 AM37 °FLight fog.No wind100%30.45 "Hg1 mi
6:00 AM37 °FLight fog.2 mph100%30.45 "Hg1 mi
5:30 AM37 °FLight fog.No wind93%30.45 "Hg1 mi
11:00 PM
Dec 21
43 °FPassing clouds.2 mph93%30.54 "HgN/A
10:30 PM43 °FPassing clouds.No wind93%30.54 "HgN/A
10:00 PM43 °FClear.No wind93%30.54 "Hg10 mi
9:30 PM45 °FClear.No wind93%30.54 "Hg10 mi
9:00 PM45 °FClear.1 mph93%30.54 "Hg10 mi
8:30 PM46 °FClear.1 mph87%30.54 "Hg10 mi
8:00 PM46 °FClear.2 mph87%30.54 "Hg10 mi
7:30 PM48 °FPassing clouds.3 mph87%30.54 "HgN/A
7:00 PM48 °FClear.2 mph87%30.54 "Hg10 mi
6:30 PM48 °FClear.3 mph87%30.54 "Hg10 mi
6:00 PM50 °FClear.3 mph82%30.54 "Hg10 mi
5:30 PM50 °FSunny.6 mph82%30.54 "Hg10 mi
5:00 PM52 °FPassing clouds.7 mph77%30.54 "HgN/A
4:30 PM54 °FPassing clouds.9 mph72%30.54 "HgN/A
4:00 PM54 °FPassing clouds.8 mph77%30.54 "HgN/A
3:30 PM54 °FScattered clouds.9 mph77%30.54 "HgN/A
3:00 PM54 °FScattered clouds.8 mph82%30.54 "HgN/A
2:30 PM55 °FScattered clouds.7 mph77%30.54 "HgN/A
2:00 PM55 °FScattered clouds.6 mph77%30.54 "HgN/A
Weather by CustomWeather, © 2014

See weather overviewHow to use our weather pages